Regional Weather Roundup
Issued by NWS

Home | Current Version | Previous Version | Graphics & Text | Print | Product List | Glossary On
Versions: 1 2 3 4 5 6 7 8 9 10 11 12 13 14 15 16 17 18 19 20 21 22 23 24 25 26 27 28 29 30 31 32 33 34 35 36 37 38 39 40 41 42 43 44 45 46 47 48 49 50
000
ASUS45 KBOU 062207
RWRCO

WEATHER ROUNDUP FOR COLORADO
NATIONAL WEATHER SERVICE DENVER/BOULDER CO
300 PM MST SAT FEB 06 2016

NOTE: "FAIR" INDICATES FEW OR NO CLOUDS BELOW 12000 FEET WITH NO
SIGNIFICANT WEATHER AND/OR OBSTRUCTIONS TO VISIBILITY.

COZ001>005-013-030-031-062300-
...NORTHWEST COLORADO...

CITY           SKY/WX    TMP DP  RH WIND       PRES   REMARKS
CRAIG          CLOUDY    20  13  74 SW5       30.39F WCI  13
HAYDEN         CLOUDY    21   9  58 CALM      30.38F
MEEKER         SUNNY     26  14  60 CALM      30.38F
MOUNT WERNER   NOT AVBL
STEAMBOAT SPGS CLOUDY    20   9  60 SW3       30.36F
WALDEN         SUNNY     30  14  51 S13       30.27F WCI  20
$$

COZ006>008-011-062300-
...WEST CENTRAL VALLEYS...

CITY           SKY/WX    TMP DP  RH WIND       PRES   REMARKS
GRAND JUNCTION SUNNY     22  13  68 NW5       30.49F WCI  16
MONTROSE       SUNNY     30  14  51 NE3       30.48F
EAGLE          SUNNY     27   9  46 CALM      30.43F
RIFLE          SUNNY     26  10  50 CALM      30.45F
DELTA          SUNNY     31  15  50 CALM      30.49F
NUCLA          SUNNY     34  12  40 CALM      30.48F
$$

COZ017>023-064>068-062300-
...SOUTHWEST COLORADO...

CITY           SKY/WX    TMP DP  RH WIND       PRES   REMARKS
DURANGO        SUNNY     30  16  56 NE6       30.37F WCI  24
CORTEZ         SUNNY     37  16  42 S3        30.41F
PAGOSA SPRINGS SUNNY     33  11  39 CALM      30.36S
TELLURIDE      SUNNY     36  12  37 W14G21    30.40S
WOLF CREEK PAS SUNNY     30  10  43 NW9       30.39S WCI  22
$$

COZ009-010-012-014-032>034-037-058>063-062300-
...CENTRAL COLORADO...

CITY           SKY/WX    TMP DP  RH WIND       PRES   REMARKS
ASPEN          SUNNY     29  14  53 NW5       30.37F WCI  24
BUENA VISTA    SUNNY     41  13  31 NW14G23   30.26F
COPPER MTN     CLOUDY    27  12  54 W16G23    30.36S WCI  14
BERTHOUD PASS    N/A     12   1  62 MISG      30.25F HAZE
COTTONWOOD PAS SUNNY     37   7  28 SW20G32   30.30S
GUNNISON       CLOUDY     7  -2  66 E6        30.48F WCI  -3
KREMMLING      CLOUDY    12   1  62 CALM      30.42S
LEADVILLE      CLOUDY    31  12  45 NW10      30.32S WCI  22
MONARCH PASS     N/A     16  12  86 MISG      30.41S
SALIDA         NOT AVBL
SUNLIGHT       SUNNY     30  25  80 CALM        N/A
WILKERSON PASS CLOUDY    28  10  47 N8        30.32S WCI  20
$$

COZ069>075-062300-
...SAN LUIS VALLEY/SANGRE DE CRISTO MOUNTAINS...

CITY           SKY/WX    TMP DP  RH WIND       PRES   REMARKS
ALAMOSA        SUNNY     34   7  32 NW6       30.33F WCI  29
LA VETA PASS   CLOUDY    21  10  63 MISG      30.25F
SAGUACHE       SUNNY     30  10  43 S3        30.35F
$$

COZ035-036-038>040-062300-
...NORTHERN COLORADO FRONT RANGE...

CITY           SKY/WX    TMP DP  RH WIND       PRES   REMARKS
DENVER INTL AP CLOUDY    45  23  42 SW12      30.09F
DMNS CITY PARK   N/A     51  17  26 W20       30.10F
AURORA         PTSUNNY   48  19  31 W15G24    30.12F
FRONT RANGE AP PTSUNNY   45  25  45 SW9       30.11F
ERIE MUNI ARPT CLOUDY    51  19  28 W16       30.08F
BOULDER MUN AP CLOUDY    54  18  24 SW13G18   30.08F
CENTENNIAL     CLOUDY    48  18  30 W7        30.12F
BROOMFIELD     PTSUNNY   46  21  36 W25       30.10F
FORT COLLINS   CLOUDY    37  25  60 S7        30.08F
LONGMONT       CLOUDY    45  22  39 CALM      30.09F
$$

COZ041-046-047-076>085-087-088-062300-
...PIKES PEAK/PALMER DIVIDE AND SOUTHERN FOOTHILLS...

CITY           SKY/WX    TMP DP  RH WIND       PRES   REMARKS
COLO. SPRINGS  CLOUDY    43   9  24 NE3       30.15F
A. F. ACADEMY  CLOUDY    43  16  32 S6        30.14F
SCHRIEVER AFB  FAIR      39  11  30 N7        30.15F
ELLICOTT       NOT AVBL
FALCON         CLOUDY    44  12  27 CALM      30.16F
FORT CARSON    CLOUDY    41  16  36 VRB1      30.14F
LIMON          CLOUDY    36  21  54 N6        30.13F
MONUMENT HILL  CLOUDY    41  21  45 NW12      30.17S
TRINIDAD       SUNNY     54  11  18 E3        30.15F
$$

COZ042>045-048>051-090-091-062300-
...NORTHEAST COLORADO...

CITY           SKY/WX    TMP DP  RH WIND       PRES   REMARKS
GREELEY ARPT   CLOUDY    34  21  60 S7        30.10S WCI  28
AKRON          CLOUDY    38  22  52 SW14      30.07F
BURLINGTON     CLOUDY    37  25  61 SW12      30.12F
WRAY           CLOUDY    42  26  53 SW7       30.08F
STERLING       CLOUDY    32  23  69 S8        30.07F WCI  25
HOLYOKE        CLOUDY    41  28  60 W9        30.06F
FORT MORGAN    CLOUDY    35  20  54 SW7       30.09F WCI  29
$$

COZ086-089-092>099-062300-
...SOUTHEAST COLORADO...

CITY           SKY/WX    TMP DP  RH WIND       PRES   REMARKS
PUEBLO         CLOUDY    48  19  31 E5        30.14S
LA JUNTA       CLOUDY    43  28  55 NE7       30.15S
LAMAR          CLOUDY    51  21  30 SW6       30.14F
SPRINGFIELD      N/A     56   9  15 S8        30.15F
$$



USA.gov is the U.S. government's official web portal to all federal, state and local government web resources and services.